Weather reports worldwide

Advertisment
Santander/Parayas, Spain (8021): temperature & dewpoint: 08.11.2018 13:00:00 - 14.11.2018 13:00:00 (CET)Santander/Parayas, Spain (8021): wind speed: 08.11.2018 13:00:00 - 14.11.2018 13:00:00 (CET)Santander/Parayas, Spain (8021): wind direction: 08.11.2018 13:00:00 - 14.11.2018 13:00:00 (CET)Santander/Parayas, Spain (8021): reduced air pressure: 08.11.2018 13:00:00 - 14.11.2018 13:00:00 (CET)Santander/Parayas, Spain (8021): visibility: 08.11.2018 13:00:00 - 14.11.2018 13:00:00 (CET)
Date & Time tt [°C] td [°C] ff [km/h] ff [kn] dd ppp [hPa] vv [km]
14.11.2018 13:00:00 21,8 11,6 21 11 SE 1018,8 30
14.11.2018 12:00:00 17,3 14,0 4 2 NNE 1020,0 -
14.11.2018 11:00:00 14,2 13,4 5 3 ENE 1020,6 -
14.11.2018 10:00:00 11,2 11,2 4 2 E 1021,2 25
14.11.2018 09:00:00 7,5 7,5 2 1 SSE 1021,4 -
14.11.2018 08:00:00 6,4 6,4 2 1 SW 1021,4 -
14.11.2018 07:00:00 7,1 7,1 4 2 N 1021,2 -
14.11.2018 06:00:00 5,9 5,9 0 0 N 1021,5 -
14.11.2018 05:00:00 6,9 6,9 4 2 SE 1021,8 -
14.11.2018 04:00:00 7,4 7,4 5 3 W 1022,2 -
14.11.2018 03:00:00 7,2 7,2 0 0 N 1022,6 -
14.11.2018 02:00:00 7,9 7,9 0 0 N 1022,8 -
14.11.2018 01:00:00 7,7 7,7 0 0 N 1023,4 -
14.11.2018 00:00:00 9,0 9,0 2 1 S 1023,6 -
13.11.2018 23:00:00 8,7 8,7 0 0 N 1024,0 -
13.11.2018 22:00:00 10,5 10,5 4 2 SE 1024,1 12
13.11.2018 21:00:00 11,1 11,1 0 0 N 1024,7 -
13.11.2018 20:00:00 12,2 11,5 4 2 SE 1025,2 -
13.11.2018 19:00:00 13,7 12,6 11 6 ENE 1025,1 20
13.11.2018 18:00:00 14,5 12,5 16 9 E 1024,9 -
13.11.2018 17:00:00 15,9 12,6 22 12 E 1024,9 -
13.11.2018 16:00:00 16,4 12,9 22 12 ENE 1025,1 3,0
13.11.2018 15:00:00 16,6 12,9 26 14 ENE 1025,3 -
13.11.2018 14:00:00 16,7 13,2 22 12 ENE 1025,8 -
13.11.2018 13:00:00 16,2 13,1 24 13 ENE 1026,3 30
13.11.2018 12:00:00 16,5 13,2 11 6 ENE 1026,9 -
13.11.2018 11:00:00 14,8 13,8 8 4 E 1027,3 -
13.11.2018 10:00:00 12,4 12,4 4 2 ESE 1027,6 20
13.11.2018 09:00:00 11,3 11,3 2 1 SSE 1027,6 -
13.11.2018 08:00:00 10,8 10,8 0 0 N 1026,9 -
13.11.2018 07:00:00 10,3 10,3 0 0 N 1026,4 10
13.11.2018 06:00:00 9,9 9,9 2 1 SSW 1026,0 -
13.11.2018 05:00:00 9,2 9,2 0 0 N 1025,5 -
13.11.2018 04:00:00 8,9 8,9 0 0 N 1025,2 -
13.11.2018 03:00:00 10,7 10,7 2 1 NE 1025,2 -
13.11.2018 02:00:00 11,2 10,9 2 1 SSW 1024,6 -
13.11.2018 01:00:00 12,7 12,1 5 3 WSW 1024,5 -
13.11.2018 00:00:00 12,8 12,0 4 2 W 1024,1 -
12.11.2018 23:00:00 12,6 11,8 8 4 SW 1023,5 -
12.11.2018 22:00:00 12,9 12,1 8 4 SW 1022,7 20
12.11.2018 21:00:00 13,2 12,3 0 0 N 1022,0 -
12.11.2018 20:00:00 13,7 11,9 5 3 SW 1021,4 -
12.11.2018 19:00:00 14,0 11,5 2 1 W 1020,4 30
12.11.2018 18:00:00 14,5 11,1 4 2 N 1019,2 -
12.11.2018 17:00:00 14,7 10,9 8 4 N 1018,3 -
12.11.2018 16:00:00 15,2 11,0 8 4 ENE 1017,8 35
12.11.2018 15:00:00 16,0 10,0 5 3 ENE 1017,3 -
12.11.2018 14:00:00 15,8 10,8 0 0 N 1017,2 -
12.11.2018 13:00:00 15,4 10,6 2 1 SSE 1017,4 35
12.11.2018 12:00:00 15,7 10,9 5 3 SW 1017,4 -
12.11.2018 11:00:00 15,0 11,9 5 3 S 1016,9 -
12.11.2018 10:00:00 12,9 12,4 4 2 SSW 1016,5 25
12.11.2018 09:00:00 11,8 11,8 5 3 SSW 1015,7 -
12.11.2018 08:00:00 11,5 11,5 4 2 S 1015,2 -
12.11.2018 07:00:00 11,4 11,4 9 5 S 1014,4 20
12.11.2018 06:00:00 11,4 11,4 9 5 S 1013,8 -
12.11.2018 05:00:00 11,5 11,5 4 2 SSE 1012,7 -
12.11.2018 04:00:00 11,5 11,5 8 4 NW 1012,4 -
12.11.2018 03:00:00 11,9 11,9 9 5 NW 1011,3 -
12.11.2018 02:00:00 12,1 12,1 13 7 N 1010,2 -
12.11.2018 01:00:00 13,1 13,1 5 3 E 1010,1 -
12.11.2018 00:00:00 13,1 13,1 5 3 ENE 1009,5 -
11.11.2018 23:00:00 12,8 12,8 4 2 ESE 1009,7 -
11.11.2018 22:00:00 13,0 13,0 0 0 N 1009,6 4,9
11.11.2018 21:00:00 13,0 13,0 4 2 SE 1009,6 -
11.11.2018 20:00:00 13,2 13,2 8 4 E 1009,6 -
11.11.2018 19:00:00 13,4 13,4 5 3 E 1009,7 3,0
11.11.2018 18:00:00 13,5 13,5 8 4 E 1009,1 -
11.11.2018 17:00:00 13,7 12,9 8 4 NNE 1008,9 -
11.11.2018 16:00:00 14,3 13,5 5 3 WNW 1009,4 3,2
11.11.2018 15:00:00 15,1 13,6 9 5 NW 1009,5 -
11.11.2018 14:00:00 16,5 13,5 16 9 WNW 1009,2 -
11.11.2018 13:00:00 20,6 11,4 26 14 WSW 1007,2 25
11.11.2018 12:00:00 20,4 10,4 34 18 SSW 1006,9 -
11.11.2018 11:00:00 19,7 10,5 41 22 SSW 1006,4 -
11.11.2018 10:00:00 19,2 10,5 29 16 SSW 1006,5 20
11.11.2018 09:00:00 18,8 10,1 29 16 SSW 1007,0 -
11.11.2018 08:00:00 18,6 9,5 29 16 SSW 1006,0 -
11.11.2018 07:00:00 18,3 8,5 37 20 SSW 1005,2 -
11.11.2018 06:00:00 18,3 9,1 34 18 SSW 1005,0 -
11.11.2018 05:00:00 17,7 9,6 29 16 S 1005,1 -
11.11.2018 04:00:00 17,6 8,8 29 16 S 1005,8 -
11.11.2018 03:00:00 17,4 9,0 26 14 S 1006,2 -
11.11.2018 02:00:00 17,6 8,4 22 12 SSW 1007,3 -
11.11.2018 01:00:00 17,0 8,3 21 11 SSW 1007,4 -
11.11.2018 00:00:00 16,4 8,6 22 12 S 1007,1 -
10.11.2018 23:00:00 14,7 8,3 15 8 SSW 1007,5 -
10.11.2018 22:00:00 11,0 9,7 5 3 E 1007,3 30
10.11.2018 21:00:00 11,8 9,9 0 0 N 1007,7 -
10.11.2018 20:00:00 12,9 10,8 0 0 N 1007,7 -
10.11.2018 19:00:00 13,5 10,8 9 5 ESE 1007,2 20
10.11.2018 18:00:00 14,6 11,2 11 6 ESE 1006,7 -
10.11.2018 17:00:00 17,0 10,6 0 0 N 1006,6 -
10.11.2018 16:00:00 17,7 9,7 13 7 NW 1006,0 25
10.11.2018 15:00:00 18,0 11,7 9 5 NE 1004,8 -
10.11.2018 14:00:00 17,4 14,2 9 5 E 1005,0 -
10.11.2018 13:00:00 17,7 12,8 8 4 E 1006,0 25
10.11.2018 12:00:00 17,7 14,2 9 5 NE 1006,0 -
10.11.2018 11:00:00 16,0 14,5 11 6 ESE 1006,7 -
10.11.2018 10:00:00 14,1 13,9 4 2 NW 1007,6 12
10.11.2018 09:00:00 13,8 13,3 4 2 W 1006,6 -
10.11.2018 08:00:00 13,7 13,1 9 5 N 1005,4 -
10.11.2018 07:00:00 13,9 12,8 8 4 E 1005,2 15
10.11.2018 06:00:00 14,3 13,0 4 2 N 1005,6 -
10.11.2018 05:00:00 14,3 12,8 5 3 NNW 1005,6 -
10.11.2018 04:00:00 14,9 13,3 8 4 W 1006,7 -
10.11.2018 03:00:00 18,2 10,7 26 14 SSW 1005,7 -
10.11.2018 02:00:00 18,1 10,2 35 19 SSW 1005,2 -
10.11.2018 01:00:00 17,6 9,7 35 19 S 1005,6 -
10.11.2018 00:00:00 17,2 9,4 42 23 S 1005,5 -
09.11.2018 23:00:00 16,4 9,3 37 20 S 1006,4 -
09.11.2018 22:00:00 16,2 9,1 42 23 S 1007,2 35
09.11.2018 21:00:00 16,0 9,0 39 21 S 1007,8 -
09.11.2018 20:00:00 15,8 8,3 44 24 S 1008,6 -
09.11.2018 19:00:00 15,5 8,5 41 22 SSW 1009,2 35
09.11.2018 18:00:00 15,8 7,7 31 17 S 1009,0 -
09.11.2018 17:00:00 16,3 6,6 34 18 S 1009,9 -
09.11.2018 16:00:00 16,8 6,3 31 17 S 1010,3 25
09.11.2018 15:00:00 17,9 6,4 26 14 S 1011,1 -
09.11.2018 14:00:00 16,7 5,5 22 12 S 1012,7 -
09.11.2018 13:00:00 16,9 6,2 16 9 S 1013,3 30
09.11.2018 12:00:00 16,2 6,9 16 9 S 1014,9 -
09.11.2018 11:00:00 15,1 7,5 13 7 S 1015,8 -
09.11.2018 10:00:00 12,9 8,4 13 7 SSW 1017,2 30
09.11.2018 09:00:00 11,4 7,7 13 7 SSW 1016,6 -
09.11.2018 08:00:00 10,4 7,1 11 6 SSW 1016,7 -
09.11.2018 07:00:00 11,4 8,3 13 7 SW 1016,6 15
09.11.2018 06:00:00 11,5 8,7 11 6 SSW 1016,1 -
09.11.2018 05:00:00 11,6 9,3 13 7 SW 1016,1 -
09.11.2018 04:00:00 11,1 10,5 11 6 SW 1015,3 -
09.11.2018 03:00:00 11,6 11,3 8 4 SSW 1014,7 -
09.11.2018 02:00:00 11,8 11,2 5 3 WNW 1013,9 -
09.11.2018 01:00:00 12,2 11,1 15 8 S 1013,3 -
09.11.2018 00:00:00 13,7 10,6 11 6 W 1012,6 -
08.11.2018 23:00:00 14,6 11,0 4 2 W 1012,0 -
08.11.2018 22:00:00 15,0 9,1 5 3 WNW 1010,7 25
08.11.2018 21:00:00 15,8 7,9 16 9 SW 1009,4 -
08.11.2018 20:00:00 16,4 7,8 22 12 SSW 1008,7 -
08.11.2018 19:00:00 16,9 8,1 21 11 S 1008,2 30
08.11.2018 18:00:00 17,3 7,6 29 16 S 1007,8 -
08.11.2018 17:00:00 18,1 7,1 22 12 S 1007,9 -
08.11.2018 16:00:00 19,7 7,0 28 15 SSW 1008,0 30
08.11.2018 15:00:00 18,3 7,2 28 15 SSW 1008,7 -
08.11.2018 14:00:00 18,6 7,3 26 14 SSW 1009,3 -
08.11.2018 13:00:00 19,0 7,3 28 15 S 1010,3 3,0

tt = temperature
td = dewpoint
ff = wind speed
dd = wind direction
ppp = reduced air pressure
vv = visibility

Next stations